Regional Weather Roundup
Issued by NWS

Home | Current Version | Previous Version | Graphics & Text | Print | Product List | Glossary On
Versions: 1 2 3 4 5 6 7 8 9 10 11 12 13 14 15 16 17 18 19 20 21 22 23 24 25 26 27 28
000
ASUS45 KBOI 232010
RWRID

IDAHO REGIONAL WEATHER ROUNDUP
NATIONAL WEATHER SERVICE BOISE ID
200 PM MDT WED AUG 23 2017

NOTE: "FAIR" INDICATES FEW OR NO CLOUDS BELOW 12000 FEET
WITH NO SIGNIFICANT WEATHER AND/OR OBSTRUCTIONS TO VISIBILITY

IDZ012-014-232100-
SOUTHWEST IDAHO


CITY           SKY/WX    TMP DP  RH WIND       PRES   REMARKS
BOISE          PTSUNNY   89  48  24 NW7       29.99F
CALDWELL       PTSUNNY   87  50  27 NW6       29.98F
MOUNTAIN HOME  PTSUNNY   88  51  27 E14       30.00F
$$

IDZ016-017-232100-
SOUTHCENTRAL IDAHO


CITY           SKY/WX    TMP DP  RH WIND       PRES   REMARKS
BURLEY         MOSUNNY   78  51  38 NE7       30.11F
JEROME         CLOUDY    81  50  33 NE13      30.11F
TWIN FALLS     PTSUNNY   83  51  33 NE14      30.09F
$$

IDZ019>023-232100-
SOUTHEAST IDAHO


CITY           SKY/WX    TMP DP  RH WIND       PRES   REMARKS
IDAHO FALLS    LGT RAIN  69  55  60 S12       30.21F
POCATELLO      MOSUNNY   80  49  33 N10       30.17F
REXBURG        MOSUNNY   75  48  38 SW16      30.20F
$$

IDZ006-010-011-018-031-032-232100-
CENTRAL IDAHO MOUNTAINS


CITY           SKY/WX    TMP DP  RH WIND       PRES   REMARKS
MCCALL         MOSUNNY   79  46  31 S9        30.12F
HAILEY         PTSUNNY   70  52  52 SE7       30.22F
STANLEY          N/A     71  39  31 N5        30.24F
SALMON         PTSUNNY   76  44  32 S3        30.07F
CHALLIS        CLOUDY    78  38  23 N3        30.13F
$$

IDZ002-004-006-007-026-232100-
NORTHERN IDAHO


CITY           SKY/WX    TMP DP  RH WIND       PRES   REMARKS
LEWISTON       PTSUNNY   80  46  30 CALM      29.95F
LOWELL           N/A     84  48  28 CALM      29.94F
COEUR D`ALENE  SUNNY     84  52  33 W6        29.99F
MULLAN PASS    PTSUNNY   73  39  29 VRB3      30.19F
$$




USA.gov is the U.S. government's official web portal to all federal, state and local government web resources and services.